Details for Flybe at EGAC




Go Back


Latest METAR
Local Time

EGAC 180620Z AUTO 23009KT 9999 BKN016/// OVC027/// 17/15 Q1012
18/08/2018, 07:28:42

Description
Results
Flybe Logo
Number of Pilots based at EGAC
0 Pilots Based here
Number of Flybe Flights Departed from EGAC
9 Flights Departed
Number of Flybe Flights Arrived at EGAC
12 Flights Arrived
Number of Flybe Schedules Departing from EGAC
69 Schedules
Number of Flybe Schedules Arriving at EGAC
70 Schedules
Number of Flybe Schedules Departing from EGAC availible today
25 Schedules Today
Number of Flybe Schedules Arriving at EGAC availible today
25 Schedules Today
Average Landing Rate at EGAC
-279 fpm
Flybe Average Landing Rate at EGAC
-263 fpm
Total Fuel Purchased at EGAC by Flybe
6,231.00 kgs / 13,736.86 lbs

Pilots Based at EGAC


Pilot ID
Pilot Name
Pilot Rank
No. of Flights
No. of Flying Hours
There are no pilots assigned to this hub!   Will you be the first?
Content